Find Starlink 31183

NORAD ID: 58747 Int'l Des: 2024-005 Owner: SPXS Country: US Constellation: starlink operational
LEOCIRCULAR

实时位置

正在加载3D地球...

关于 Starlink 31183

正在加载描述...

即将过境

Passes for default location (London). Set your location on the main map for personalized predictions.

高度历史

Loading altitude history...

两行轨道根数

1 58747U 24005V 26122.45038512 .00002069 00000-0 84712-4 0 9996
2 58747 42.9993 276.3232 0001745 274.0935 85.9717 15.27571095128764
Epoch: May 2, 2026 • Age: 8 hours

当前状态

高度 489.7 km
速度 7.62 km/s
星下点 -28.85°S, 100.96°E
发射日期 Jan 7, 2024
运行时间 2.3 years
类型 internet

技术详情

分类 Payload
质量 730.00 kg
干质量 700.00 kg
总质量 730.00 kg
长度 0.30 m
直径 4.10 m
跨度 29.00 m
形状 Box + pan
制造商 SPXS
平台类型 Starlink V2M
阶段状态 In Orbit
所有者/国家 SPXS/US

Most Searched